Home   Weather   Langesund   Past weeks

Flag for Norway Past Weather in Langesund, Norway — Yesterday and Last 2 Weeks

Now
37 °F

Chilly.


Feels Like: 32 °F
Forecast: 33 / 43 °F
Wind: 6 mph from Southwest

Location: Jomfruland Fyr

Current Time: Feb 22, 2017 at 12:46:48 am

Latest Report: Feb 21, 2017 at 11:00 pm


Visibility: N/A

Pressure: 29.32 "Hg

Humidity: 90%

Dew Point: 34 °F

Location of LangesundLocation

Past Weather in Langesund — Graph

°F

Langesund Temperature Yesterday

Maximum temperature yesterday: 49 °F (at 1:00 pm)
Minimum temperature yesterday: 33 °F (at 6:00 pm)
Average temperature yesterday: 40 °F

High & Low Weather Summary for the Past Weeks

 TemperatureHumidityPressure
High49 °F (Feb 21, 1:00 pm)100% (Feb 17, 3:00 am)30.84 "Hg (Feb 17, 3:00 am)
Low20 °F (Feb 13, 8:00 am)44% (Feb 21, 12:00 pm)29.15 "Hg (Feb 20, 5:00 pm)
Average29 °F88%30.29 "Hg
* Reported Feb 6 11:00 pm — Feb 21 11:00 pm, Langesund, Weather by CustomWeather, © 2017

Note: Actual official high and low records may vary slightly from our data, if they occured in-between our weather recording intervals... More about our weather records

Advertising

Langesund Weather History for the Previous 24 Hours

Scroll right to see more
 ConditionsComfort  
Time TempWeatherWind HumidityBarometerVisibility
11:00 pm
Tue, Feb 21
37 °FChilly.6 mph90%29.32 "HgN/A
10:00 pm38 °FChilly.7 mph79%29.35 "HgN/A
9:00 pm35 °FChilly.2 mph91%29.38 "HgN/A
8:00 pm34 °FChilly.2 mph93%29.41 "HgN/A
7:00 pm33 °FChilly.1 mph92%29.44 "HgN/A
6:00 pm33 °FChilly.1 mph89%29.47 "HgN/A
5:00 pm35 °FChilly.No wind83%29.47 "HgN/A
4:00 pm37 °FChilly.3 mph80%29.44 "HgN/A
3:00 pm39 °FChilly.3 mph78%29.44 "HgN/A
2:00 pm40 °FQuite cool.6 mph72%29.41 "HgN/A
1:00 pm49 °FCool.3 mph45%29.38 "HgN/A
12:00 pm49 °FCool.6 mph44%29.35 "HgN/A
11:00 am46 °FCool.2 mph52%29.32 "HgN/A
10:00 am46 °FCool.1 mph52%29.29 "HgN/A
9:00 am42 °FQuite cool.3 mph61%29.26 "HgN/A
8:00 am42 °FQuite cool.5 mph61%29.23 "HgN/A
7:00 am42 °FQuite cool.6 mph67%29.21 "HgN/A
6:00 am41 °FQuite cool.9 mph68%29.21 "HgN/A
5:00 am42 °FQuite cool.8 mph67%29.21 "HgN/A
4:00 am42 °FQuite cool.6 mph59%29.21 "HgN/A
3:00 am43 °FQuite cool.5 mph56%29.21 "HgN/A
2:00 am42 °FQuite cool.8 mph67%29.21 "HgN/A
1:00 am39 °FChilly.7 mph80%29.21 "HgN/A
12:00 am39 °FChilly.7 mph82%29.21 "HgN/A
Weather by CustomWeather, © 2017

See weather overviewHow to use our weather pages